Regional Weather Roundup
Issued by NWS

Home | Current Version | Previous Version | Text Only | Print | Product List | Glossary On
Versions: 1 2 3 4 5 6 7 8 9 10 11 12 13 14 15 16 17 18 19 20 21 22 23 24 25 26 27 28 29 30 31 32 33 34 35 36 37 38 39 40 41 42 43 44 45 46 47 48 49 50
000
ASUS43 KLSX 161757
RWRMO

WEATHER SUMMARY FOR MISSOURI
NATIONAL WEATHER SERVICE SPRINGFIELD MO
100 PM CDT THU AUG 16 2018

NOTE: "FAIR" INDICATES FEW OR NO CLOUDS BELOW 12,000 FEET WITH NO
       SIGNIFICANT WEATHER AND/OR OBSTRUCTIONS TO VISIBILITY.
       CURRENT SKY AND/OR WEATHER CONDITIONS ARE NOT AVAILABLE FOR
       CHILLICOTHE AND FARMINGTON.

MOZ001>031-035>038-043-044-053-054-161900-
...NORTHERN AND WESTERN MISSOURI...

CITY           SKY/WX    TMP DP  RH WIND       PRES   REMARKS
KANSAS CTY INT PTSUNNY   84  71  65 SW7       29.98F
6HR MIN TEMP:  69; 6HR MAX TEMP:  84;

LEE`S SUMMIT   MOSUNNY   85  70  60 W3        29.98F
6HR MIN TEMP:  70; 6HR MAX TEMP:  88;

ST JOSEPH      MOSUNNY   85  72  65 VRB3      29.97F HX  91
6HR MIN TEMP:  66; 6HR MAX TEMP:  85;

CHILLICOTHE      N/A     87  71  58 S5        29.96F HX  93
6HR MIN TEMP:  70; 6HR MAX TEMP:  88;


$$
MOZ066>068-077>081-088>096-101>105-161900-
...SOUTHWEST MISSOURI...

CITY           SKY/WX    TMP DP  RH WIND       PRES   REMARKS
SPRINGFIELD    MOSUNNY   86  69  56 W7        30.02F HX  90
6HR MIN TEMP:  71; 6HR MAX TEMP:  86;

JOPLIN         MOSUNNY   88  70  55 VRB5      30.01F HX  93
6HR MIN TEMP:  69; 6HR MAX TEMP:  88;

BRANSON        PTSUNNY   84  72  65 CALM      30.05F

$$
MOZ032>034-039>042-045>050-055>058-069>072-161900-
...CENTRAL MISSOURI...

CITY           SKY/WX    TMP DP  RH WIND       PRES   REMARKS
COLUMBIA       NOT AVBL
JEFFERSON CITY PTSUNNY   89  70  53 NW3       29.95F HX  94
6HR MIN TEMP:  71; 6HR MAX TEMP:  89;

ROLLA          MOSUNNY   85  71  63 W10       30.01S HX  90
6HR MIN TEMP:  70; 6HR MAX TEMP:  86;

SEDALIA        MOSUNNY   90  70  51 VRB7      29.99F HX  95
6HR MIN TEMP:  73; 6HR MAX TEMP:  91;

WARRENSBURG    MOSUNNY   88  66  48 SW7       29.97F HX  90

$$
MOZ051-052-059>065-161900-
...EAST CENTRAL MISSOURI...

CITY           SKY/WX    TMP DP  RH WIND       PRES   REMARKS
ST LOUIS INTL  PTSUNNY   88  73  61 W9        29.97S HX  95
6HR MIN TEMP:  74; 6HR MAX TEMP:  88;


$$
MOZ072>076-082>087-097>100-106>115-161900-
...SOUTH CENTRAL AND SOUTHEAST MISSOURI...

CITY           SKY/WX    TMP DP  RH WIND       PRES   REMARKS
CAPE GIRARDEAU PTSUNNY   83  73  72 SW10      30.00S
6HR MIN TEMP:  73; 6HR MAX TEMP:  84;

POPLAR BLUFF   PTSUNNY   83  77  82 SW13      30.01S HX  92
6HR MIN TEMP:  73; 6HR MAX TEMP:  83; 6HR PCP: TRACE;

WEST PLAINS    MOSUNNY   86  70  58 W10G18    30.04F HX  90
6HR MIN TEMP:  73; 6HR MAX TEMP:  86;


$$



USA.gov is the U.S. government's official web portal to all federal, state and local government web resources and services.